COSMOS 2433 (720)

Last updated on Tue Jan 14 2025 00:03:10 GMT+0000 (Coordinated Universal Time)

1 32275U 07052A 25013.44671404 -.00000082 00000+0 00000+0 0 9993 2 32275 65.8500 333.3703 0004658 268.1108 91.8243 2.13103925133983
UTC large
Height (km)
Speed (km/s)
/
Latitude / Longitude
Inclination (degrees)
Orbital Period (minutes)
Azimuth
Elevation
Range (km)
Doppler Factor

Next 0 passes for location: London (51.5072 / 0.1276)

Sorry there are no passes over London.